TimePST,TemperatureF,Dew PointF,Humidity,Sea Level PressureIn,VisibilityMPH,Wind Direction,Wind SpeedMPH,Gust SpeedMPH,PrecipitationIn,Events,Conditions,WindDirDegrees,DateUTC
12:15 AM,33.8,33.8,100,30.06,10.0,Calm,Calm,-,N/A,,Mostly Cloudy,0,2013-02-20 08:15:00
12:35 AM,33.8,33.8,100,30.07,10.0,Calm,Calm,-,N/A,,Mostly Cloudy,0,2013-02-20 08:35:00
12:55 AM,35.6,33.8,93,30.07,7.0,Calm,Calm,-,N/A,,Overcast,0,2013-02-20 08:55:00
1:35 AM,37.4,37.4,100,30.08,7.0,Calm,Calm,-,N/A,,Mostly Cloudy,0,2013-02-20 09:35:00
1:55 AM,37.4,35.6,93,30.08,7.0,Calm,Calm,-,N/A,,Overcast,0,2013-02-20 09:55:00
2:15 AM,37.4,35.6,93,30.09,10.0,East,3.5,-,N/A,,Overcast,90,2013-02-20 10:15:00
2:35 AM,37.4,35.6,93,30.09,10.0,East,3.5,-,N/A,,Overcast,80,2013-02-20 10:35:00
2:55 AM,37.4,37.4,100,30.09,10.0,East,3.5,-,N/A,,Overcast,80,2013-02-20 10:55:00
3:15 AM,35.6,35.6,100,30.09,10.0,Calm,Calm,-,N/A,,Overcast,0,2013-02-20 11:15:00
3:35 AM,35.6,35.6,100,30.09,10.0,Calm,Calm,-,N/A,,Mostly Cloudy,0,2013-02-20 11:35:00
3:55 AM,35.6,33.8,93,30.10,10.0,Calm,Calm,-,N/A,,Mostly Cloudy,0,2013-02-20 11:55:00
4:15 AM,35.6,33.8,93,30.09,10.0,East,3.5,-,N/A,,Overcast,100,2013-02-20 12:15:00
4:35 AM,35.6,33.8,93,30.09,10.0,Calm,Calm,-,N/A,,Overcast,0,2013-02-20 12:35:00
5:15 AM,33.8,33.8,100,30.11,10.0,Calm,Calm,-,N/A,,Clear,0,2013-02-20 13:15:00
5:35 AM,33.8,33.8,100,30.11,10.0,Calm,Calm,-,N/A,,Clear,0,2013-02-20 13:35:00
5:55 AM,32.0,32.0,100,30.11,10.0,Calm,Calm,-,N/A,,Clear,0,2013-02-20 13:55:00
6:15 AM,33.8,32.0,93,30.12,10.0,East,3.5,-,N/A,,Scattered Clouds,90,2013-02-20 14:15:00
6:35 AM,33.8,32.0,93,30.12,10.0,Calm,Calm,-,N/A,,Mostly Cloudy,0,2013-02-20 14:35:00
6:55 AM,33.8,33.8,100,30.12,10.0,Calm,Calm,-,N/A,,Overcast,0,2013-02-20 14:55:00
7:15 AM,32.0,32.0,100,30.12,10.0,East,4.6,-,N/A,,Scattered Clouds,90,2013-02-20 15:15:00
7:35 AM,32.0,32.0,100,30.12,10.0,Calm,Calm,-,N/A,,Clear,0,2013-02-20 15:35:00
7:55 AM,33.8,33.8,100,30.13,10.0,East,3.5,-,N/A,,Mostly Cloudy,80,2013-02-20 15:55:00
8:15 AM,33.8,33.8,100,30.12,10.0,Calm,Calm,-,N/A,,Overcast,0,2013-02-20 16:15:00
8:35 AM,37.4,35.6,93,30.12,10.0,Calm,Calm,-,N/A,,Mostly Cloudy,0,2013-02-20 16:35:00
8:55 AM,37.4,37.4,100,30.12,10.0,Calm,Calm,-,N/A,,Mostly Cloudy,0,2013-02-20 16:55:00
9:15 AM,39.2,37.4,93,30.13,10.0,Calm,Calm,-,N/A,,Overcast,0,2013-02-20 17:15:00
9:35 AM,41.0,41.0,100,30.14,10.0,Calm,Calm,-,N/A,,Mostly Cloudy,0,2013-02-20 17:35:00
9:55 AM,42.8,41.0,93,30.14,10.0,South,5.8,-,N/A,,Scattered Clouds,180,2013-02-20 17:55:00
10:15 AM,44.6,41.0,87,30.14,5.0,South,10.4,-,N/A,Rain,Light Rain,190,2013-02-20 18:15:00
10:35 AM,42.8,41.0,93,30.14,4.0,South,9.2,-,N/A,Rain,Light Rain,190,2013-02-20 18:35:00
10:55 AM,42.8,41.0,93,30.14,4.0,South,6.9,-,N/A,,Light Drizzle,170,2013-02-20 18:55:00
11:15 AM,44.6,42.8,93,30.14,4.0,South,9.2,-,N/A,,Overcast,180,2013-02-20 19:15:00
11:35 AM,46.4,42.8,87,30.13,4.0,South,12.7,18.4,N/A,,Mostly Cloudy,190,2013-02-20 19:35:00
11:55 AM,46.4,41.0,81,30.12,5.0,SSW,11.5,-,N/A,,Haze,200,2013-02-20 19:55:00
12:15 PM,44.6,41.0,87,30.12,5.0,SSW,11.5,-,N/A,,Overcast,210,2013-02-20 20:15:00
12:35 PM,46.4,41.0,81,30.11,5.0,SSW,11.5,-,N/A,,Haze,200,2013-02-20 20:35:00
12:55 PM,44.6,42.8,93,30.12,4.0,SSW,18.4,21.9,N/A,Rain,Light Rain,200,2013-02-20 20:55:00
1:15 PM,44.6,41.0,87,30.11,5.0,SW,9.2,-,N/A,,Overcast,230,2013-02-20 21:15:00
1:35 PM,44.6,42.8,93,30.11,5.0,SW,10.4,-,0.01,,Overcast,230,2013-02-20 21:35:00
1:55 PM,44.6,41.0,87,30.10,7.0,SSW,8.1,-,0.01,,Overcast,210,2013-02-20 21:55:00
2:15 PM,44.6,41.0,87,30.10,7.0,SW,10.4,-,N/A,,Overcast,220,2013-02-20 22:15:00
2:35 PM,44.6,41.0,87,30.09,5.0,SW,11.5,16.1,N/A,Rain,Rain,220,2013-02-20 22:35:00
2:55 PM,44.6,41.0,87,30.08,7.0,SW,11.5,-,N/A,,Overcast,220,2013-02-20 22:55:00
3:15 PM,44.6,41.0,87,-9999,5.0,SW,13.8,-,0.01,Rain,Light Rain,230,2013-02-20 23:15:00
3:35 PM,42.8,39.2,87,30.07,7.0,SW,12.7,-,0.01,Rain,Light Rain,230,2013-02-20 23:35:00
3:55 PM,44.6,37.4,76,30.07,7.0,SSW,13.8,20.7,0.01,,Drizzle,210,2013-02-20 23:55:00
4:15 PM,42.8,37.4,81,30.07,7.0,SW,11.5,23.0,N/A,,Drizzle,230,2013-02-21 00:15:00
4:35 PM,42.8,37.4,81,30.07,5.0,SW,16.1,-,N/A,Rain,Rain,220,2013-02-21 00:35:00
4:55 PM,42.8,39.2,87,30.07,4.0,SW,15.0,19.6,N/A,,Drizzle,220,2013-02-21 00:55:00
5:15 PM,42.8,39.2,87,30.07,1.8,SW,11.5,20.7,0.01,,Drizzle,220,2013-02-21 01:15:00
5:35 PM,41.0,41.0,100,30.06,1.5,SSW,13.8,21.9,0.01,,Drizzle,200,2013-02-21 01:35:00
5:55 PM,41.0,41.0,100,30.07,2.0,SSW,11.5,-,0.04,Rain,Rain,200,2013-02-21 01:55:00
6:15 PM,41.0,41.0,100,30.07,4.0,South,11.5,26.5,0.02,Rain,Rain,190,2013-02-21 02:15:00
6:35 PM,42.8,41.0,93,30.08,7.0,South,5.8,-,0.03,Rain,Light Rain,180,2013-02-21 02:35:00
6:55 PM,41.0,39.2,93,30.09,10.0,ESE,3.5,-,0.04,Rain,Light Rain,110,2013-02-21 02:55:00
7:15 PM,39.2,37.4,93,30.11,10.0,East,5.8,-,N/A,Rain,Light Rain,100,2013-02-21 03:15:00
7:35 PM,39.2,37.4,93,30.11,10.0,Calm,Calm,-,0.01,Rain,Light Rain,0,2013-02-21 03:35:00
7:55 PM,39.2,37.4,93,30.12,10.0,Calm,Calm,-,0.02,,Overcast,0,2013-02-21 03:55:00
8:15 PM,37.4,37.4,100,30.12,10.0,SE,4.6,-,N/A,,Overcast,140,2013-02-21 04:15:00
8:35 PM,37.4,37.4,100,-9999,10.0,Calm,Calm,-,N/A,,Overcast,0,2013-02-21 04:35:00
8:55 PM,41.0,39.2,93,30.13,10.0,Calm,Calm,-,N/A,,Overcast,0,2013-02-21 04:55:00
9:15 PM,42.8,41.0,93,30.13,7.0,NW,12.7,17.3,N/A,,Overcast,320,2013-02-21 05:15:00
9:35 PM,42.8,41.0,93,30.13,7.0,NW,11.5,20.7,N/A,Rain,Rain,320,2013-02-21 05:35:00
9:55 PM,42.8,39.2,87,30.14,7.0,ENE,8.1,-,N/A,,Overcast,60,2013-02-21 05:55:00
10:15 PM,41.0,39.2,93,30.15,10.0,ENE,3.5,-,N/A,,Overcast,70,2013-02-21 06:15:00
10:35 PM,42.8,41.0,93,30.16,5.0,NNE,4.6,-,N/A,,Drizzle,20,2013-02-21 06:35:00
10:55 PM,41.0,39.2,93,30.16,10.0,Calm,Calm,-,N/A,,Overcast,0,2013-02-21 06:55:00
11:15 PM,44.6,41.0,87,30.16,7.0,NW,11.5,-,N/A,,Overcast,310,2013-02-21 07:15:00
11:35 PM,44.6,39.2,81,30.16,7.0,NW,10.4,17.3,N/A,,Overcast,320,2013-02-21 07:35:00
11:55 PM,44.6,39.2,81,30.16,7.0,NW,10.4,-,N/A,,Overcast,320,2013-02-21 07:55:00